• In Latvia
  • List of Countries
  • For 7 days
  • Water Temperature
  • Satellite Maps
  • Weather Map
  • Weather Widgets
  • user-avatar
    Login

    Hourly Weather Kaprun

    Today, 17 October, Tuesday

    Time Temperature Precipitation Wind Pressure Humidity
    00:00 +5°C° 0 mm 1 mps 603 mmHg 70%
    01:00 +5°C° 0 mm 1 mps 603 mmHg 69%
    02:00 +5°C° 0 mm 1 mps 603 mmHg 68%
    03:00 +5°C° 0 mm 1 mps 603 mmHg 66%
    04:00 +5°C° 0 mm 1 mps 603 mmHg 65%
    05:00 +4°C° 0 mm 1 mps 603 mmHg 64%
    06:00 +4°C° 0 mm 1 mps 603 mmHg 63%
    07:00 +4°C° 0 mm 1 mps 603 mmHg 60%
    08:00 +7°C° 0 mm 1 mps 604 mmHg 53%
    09:00 +11°C° 0 mm 1 mps 605 mmHg 46%
    10:00 +14°C° 0 mm 1 mps 607 mmHg 39%
    11:00 +15°C° 0 mm 1 mps 607 mmHg 37%
    12:00 +15°C° 0 mm 1 mps 607 mmHg 36%
    13:00 +16°C° 0 mm 2 mps 607 mmHg 34%
    14:00 +15°C° 0 mm 2 mps 606 mmHg 42%
    15:00 +14°C° 0 mm 2 mps 605 mmHg 49%
    16:00 +13°C° 0 mm 1 mps 604 mmHg 56%
    17:00 +10°C° 0 mm 1 mps 603 mmHg 62%
    18:00 +8°C° 0 mm 1 mps 602 mmHg 68%
    19:00 +6°C° 0 mm 1 mps 601 mmHg 74%
    20:00 +5°C° 0 mm 1 mps 600 mmHg 73%
    21:00 +5°C° 0 mm 1 mps 600 mmHg 71%
    22:00 +3°C° 0 mm 2 mps 600 mmHg 70%
    23:00 +3°C° 0 mm 2 mps 600 mmHg 69%

    Tomorrow, 18 October, Wednesday

    Time Temperature Precipitation Wind Pressure Humidity
    00:00 +4°C° 0 mm 1 mps 599 mmHg 68%
    01:00 +4°C° 0 mm 1 mps 599 mmHg 67%
    02:00 +4°C° 0 mm 1 mps 599 mmHg 66%
    03:00 +4°C° 0 mm 1 mps 598 mmHg 65%
    04:00 +3°C° 0 mm 1 mps 598 mmHg 64%
    05:00 +3°C° 0 mm 1 mps 598 mmHg 63%
    06:00 +3°C° 0 mm 1 mps 598 mmHg 63%
    07:00 +3°C° 0 mm 1 mps 598 mmHg 63%
    08:00 +6°C° 0 mm 1 mps 599 mmHg 55%
    09:00 +8°C° 0 mm 1 mps 600 mmHg 47%
    10:00 +11°C° 0 mm 1 mps 601 mmHg 40%
    11:00 +12°C° 0 mm 1 mps 601 mmHg 39%
    12:00 +12°C° 0 mm 1 mps 601 mmHg 37%
    13:00 +13°C° 0 mm 2 mps 601 mmHg 36%
    14:00 +12°C° 0 mm 2 mps 600 mmHg 43%
    15:00 +11°C° 0 mm 1 mps 600 mmHg 50%
    16:00 +10°C° 0 mm 1 mps 599 mmHg 56%
    17:00 +8°C° 0 mm 1 mps 598 mmHg 64%
    18:00 +6°C° 0 mm 1 mps 597 mmHg 73%
    19:00 +3°C° 0 mm 1 mps 597 mmHg 81%
    20:00 +3°C° 0 mm 1 mps 597 mmHg 78%
    21:00 +3°C° 0 mm 1 mps 597 mmHg 76%
    22:00 +3°C° 0 mm 1 mps 597 mmHg 73%
    23:00 +2°C° 0 mm 1 mps 597 mmHg 72%

    Day after tomorrow, 19 October, Thursday

    Time Temperature Precipitation Wind Pressure Humidity
    00:00 +2°C° 0 mm 1 mps 596 mmHg 70%
    01:00 +2°C° 0 mm 1 mps 596 mmHg 68%
    02:00 +2°C° 0 mm 1 mps 596 mmHg 67%
    03:00 +2°C° 0 mm 1 mps 596 mmHg 66%
    04:00 +2°C° 0 mm 1 mps 596 mmHg 65%
    05:00 +1°C° 0 mm 1 mps 596 mmHg 64%
    06:00 +1°C° 0 mm 1 mps 596 mmHg 63%
    07:00 +1°C° 0 mm 1 mps 596 mmHg 61%
    08:00 +4°C° 0 mm 1 mps 597 mmHg 54%
    09:00 +7°C° 0 mm 1 mps 598 mmHg 46%
    10:00 +10°C° 0 mm 1 mps 600 mmHg 39%
    11:00 +11°C° 0 mm 1 mps 600 mmHg 38%
    12:00 +12°C° 0 mm 1 mps 600 mmHg 36%
    13:00 +12°C° 0 mm 1 mps 600 mmHg 35%
    14:00 +11°C° 0 mm 1 mps 599 mmHg 42%
    15:00 +11°C° 0 mm 1 mps 599 mmHg 49%
    16:00 +10°C° 0 mm 1 mps 599 mmHg 56%
    17:00 +8°C° 0 mm 1 mps 598 mmHg 62%
    18:00 +5°C° 0 mm 1 mps 597 mmHg 68%
    19:00 +3°C° 0 mm 1 mps 596 mmHg 74%
    20:00 +3°C° 0 mm 1 mps 596 mmHg 71%
    21:00 +3°C° 0 mm 1 mps 597 mmHg 68%
    22:00 +3°C° 0 mm 1 mps 597 mmHg 65%
    23:00 +3°C° 0 mm 1 mps 597 mmHg 64%

    20 October, Friday

    Time Temperature Precipitation Wind Pressure Humidity
    00:00 +3°C° 0 mm 1 mps 597 mmHg 62%
    01:00 +3°C° 0 mm 1 mps 597 mmHg 61%
    02:00 +2°C° 0 mm 1 mps 597 mmHg 60%
    03:00 +2°C° 0 mm 1 mps 597 mmHg 60%
    04:00 +2°C° 0 mm 1 mps 597 mmHg 60%
    05:00 +2°C° 0 mm 1 mps 597 mmHg 59%
    06:00 +2°C° 0 mm 1 mps 597 mmHg 59%
    07:00 +2°C° 0 mm 1 mps 597 mmHg 59%
    08:00 +5°C° 0 mm 1 mps 598 mmHg 52%
    09:00 +8°C° 0 mm 1 mps 600 mmHg 46%
    10:00 +10°C° 0 mm 0 mps 601 mmHg 39%
    11:00 +10°C° 0 mm 0 mps 601 mmHg 39%
    12:00 +12°C° 0 mm 1 mps 602 mmHg 38%
    13:00 +12°C° 0 mm 1 mps 602 mmHg 37%
    14:00 +12°C° 0 mm 1 mps 601 mmHg 45%
    15:00 +10°C° 0 mm 0 mps 601 mmHg 53%
    16:00 +9°C° 0 mm 0 mps 601 mmHg 61%
    17:00 +7°C° 0 mm 0 mps 600 mmHg 67%
    18:00 +5°C° 0 mm 1 mps 599 mmHg 73%
    19:00 +3°C° 0 mm 1 mps 598 mmHg 79%
    20:00 +3°C° 0 mm 1 mps 598 mmHg 77%
    21:00 +3°C° 0 mm 1 mps 599 mmHg 76%
    22:00 +3°C° 0 mm 1 mps 599 mmHg 74%
    23:00 +3°C° 0 mm 1 mps 599 mmHg 73%

    21 October, Saturday

    Time Temperature Precipitation Wind Pressure Humidity
    00:00 +3°C° 0 mm 1 mps 598 mmHg 72%
    01:00 +3°C° 0 mm 1 mps 598 mmHg 70%
    02:00 +3°C° 0 mm 1 mps 598 mmHg 70%
    03:00 +2°C° 0 mm 1 mps 598 mmHg 69%
    04:00 +2°C° 0 mm 1 mps 598 mmHg 68%
    05:00 +2°C° 0 mm 1 mps 598 mmHg 67%
    06:00 +2°C° 0 mm 1 mps 598 mmHg 66%
    07:00 +2°C° 0 mm 1 mps 598 mmHg 65%
    08:00 +5°C° 0 mm 1 mps 599 mmHg 57%
    09:00 +8°C° 0 mm 1 mps 600 mmHg 49%
    10:00 +11°C° 0 mm 1 mps 602 mmHg 42%
    11:00 +12°C° 0 mm 1 mps 602 mmHg 40%
    12:00 +13°C° 0 mm 1 mps 602 mmHg 38%
    13:00 +13°C° 0 mm 1 mps 602 mmHg 36%
    14:00 +12°C° 0 mm 1 mps 601 mmHg 45%
    15:00 +11°C° 0 mm 1 mps 601 mmHg 54%
    16:00 +10°C° 0 mm 1 mps 600 mmHg 62%
    17:00 +8°C° 0 mm 1 mps 599 mmHg 70%
    18:00 +6°C° 0 mm 1 mps 599 mmHg 77%
    19:00 +4°C° 0 mm 1 mps 598 mmHg 84%
    20:00 +4°C° 0 mm 1 mps 598 mmHg 84%
    21:00 +3°C° 0 mm 1 mps 598 mmHg 85%
    22:00 +2°C° 0 mm 0 mps 598 mmHg 85%
    23:00 +2°C° 0 mm 0 mps 598 mmHg 85%

    22 October, Sunday

    Time Temperature Precipitation Wind Pressure Humidity
    00:00 +2°C° 0 mm 0 mps 597 mmHg 86%
    01:00 +1°C° 0 mm 0 mps 597 mmHg 87%
    02:00 +1°C° 0.1 mm 0 mps 597 mmHg 87%
    03:00 +1°C° 0.1 mm 0 mps 597 mmHg 87%
    04:00 +1°C° 0.1 mm 0 mps 597 mmHg 88%
    05:00 +1°C° 0.8 mm 0 mps 597 mmHg 88%
    06:00 +3°C° 0.8 mm 1 mps 597 mmHg 89%
    07:00 +3°C° 0.8 mm 1 mps 597 mmHg 90%
    08:00 +3°C° 1.5 mm 1 mps 597 mmHg 92%
    09:00 +3°C° 1.5 mm 1 mps 597 mmHg 94%
    10:00 +3°C° 1.5 mm 1 mps 597 mmHg 95%
    11:00 +1°C° 1.9 mm 2 mps 597 mmHg 96%
    12:00 +1°C° 1.9 mm 2 mps 597 mmHg 96%
    13:00 +1°C° 1.9 mm 2 mps 596 mmHg 97%
    14:00 -1°C° 2.3 mm 2 mps 596 mmHg 96%
    15:00 -1°C° 2.3 mm 3 mps 596 mmHg 96%
    16:00 -2°C° 2.3 mm 3 mps 596 mmHg 96%
    17:00 -2°C° 0.9 mm 3 mps 596 mmHg 96%
    18:00 -2°C° 0.9 mm 3 mps 596 mmHg 96%
    19:00 -3°C° 0.9 mm 2 mps 597 mmHg 96%
    20:00 -4°C° 0.5 mm 3 mps 597 mmHg 96%
    21:00 -4°C° 0.5 mm 3 mps 597 mmHg 95%
    22:00 -5°C° 0.5 mm 3 mps 597 mmHg 95%
    23:00 -5°C° 0.3 mm 3 mps 598 mmHg 95%
    Show more